Location: Newark
(58.9986°N, 38.5006°E)
Time: 20:21:02
(UTC+00:00)

S-56A Canister/Altair - Visible Passes

Search period start: 17 April 2021 00:00
Search period end: 27 April 2021 00:00
Orbit: 632 x 2500 km, 38.9° (Epoch: 17 April)

Date Brightness Start Highest point End Pass type
(mag) Time Alt. Az. Time Alt. Az. Time Alt. Az.
24 Apr 10.3 19:28:01 10° S 19:28:39 11° S 19:28:39 11° S visible
25 Apr 10.1 18:54:53 10° S 18:58:19 13° SSE 18:58:46 12° SSE visible
26 Apr 10.1 18:21:48 10° S 18:25:41 13° SSE 18:28:41 11° SE visible
26 Apr 10.1 20:23:42 10° SW 20:26:10 14° SSW 20:26:10 14° SSW visible
